Content
SEND FEEDBACK

Daily
Averages
Monthly
Summary
France

ROUEN, FRANCE


Home > Europe > France
Elevation: 515 feet     Latitude: 49 23N     Longitude: 001 11E

WEATHER
 
SELECT A DAY
Number of Records: 173,411;   Date Range: 7/1/96 - 8/10/14
 
SHARE

PRINT THIS DATA

[ ← Previous Day ]
WEATHER ALMANAC - JANUARY 3, 2013
[ Next Day → ]
[ °C ]   °F
Weather ElementAverageHighLow
Temperature49.3 °F50 °F (3:00 am)46.4 °F (12:30 am)
Dewpoint47.7 °F50 °F (5:30 am)44.6 °F (9:00 pm)
Humidity94.4 %100 % (12:30 am)87 % (9:00 pm)
Barometer30.57 in30.69 in (9:30 pm)30.42 in (12:30 am)
Wind Speed10 mph13.8 mph (4:00 am)
Weather ElementAverage
Visibility3.1 mi
Wind DirectionWNW (288 °)

Weather ElementTotal
Precipitation---
Heating Degree Days16.8 (Base 65)
Averaged from 51 records on January 3, 2013
WEATHER CONDITIONS BREAKOUT
WIND DIRECTION BREAKOUT
WEATHER BY HOUR - JANUARY 3, 2013
[ °C ]   °F
Local TimeTemperatureDewpointHumidityBarometerVisibilityWind DirectionWind SpeedGust SpeedPrecipitationEventsConditions
12:30 AM46.4 °F46.4 °F100 %30.42 in0.5 miWSW (250°)10.4 mphFogFog
1:00 AM47.0 °F47.0 °F98 %30.44 in1.0 miWest (260°)10.4 mphRainDrizzle
1:00 AM48.2 °F46.4 °F93 %30.42 in0.6 miWest (260°)9.2 mphFogDrizzle
1:30 AM48.2 °F46.4 °F93 %30.42 in0.7 miWest (270°)9.2 mphFogLight Drizzle
2:00 AM48.2 °F48.2 °F100 %30.42 in0.2 miWest (280°)8.1 mphFogLight Drizzle
2:30 AM48.2 °F48.2 °F100 %30.42 in0.8 miWNW (300°)8.1 mphDrizzle
3:00 AM50.0 °F48.2 °F94 %30.45 in1.4 miWNW (290°)11.5 mphDrizzle
3:30 AM50.0 °F48.2 °F94 %30.45 in0.9 miWNW (290°)11.5 mphDrizzle
4:00 AM50.0 °F48.2 °F94 %30.45 in0.6 miWNW (290°)13.8 mphFogDrizzle
4:30 AM50.0 °F48.2 °F94 %30.45 in0.5 miWNW (290°)10.4 mphFog-RainLight Rain
5:00 AM50.0 °F48.2 °F94 %30.45 inWNW (290°)10.4 mphFog-RainLight Rain
5:30 AM50.0 °F50.0 °F100 %30.48 in0.8 miWNW (290°)11.5 mphDrizzle
6:00 AM50.0 °F48.2 °F94 %30.48 in0.8 miWNW (290°)12.7 mphLight Drizzle
6:30 AM50.0 °F48.2 °F94 %30.48 inWNW (300°)11.5 mphFogFog
7:00 AM49.0 °F49.0 °F98 %30.52 in1.0 miWNW (300°)10.4 mphRainDrizzle
7:00 AM50.0 °F48.2 °F94 %30.51 in0.6 miWNW (300°)10.4 mphFogDrizzle
7:30 AM50.0 °F48.2 °F94 %30.51 in0.5 miWNW (290°)10.4 mphFogDrizzle
8:00 AM50.0 °F48.2 °F94 %30.51 in0.6 miWNW (290°)9.2 mphMist
8:30 AM50.0 °F48.2 °F94 %30.54 inWNW (300°)10.4 mphLight Drizzle
9:00 AM50.0 °F48.2 °F94 %30.54 inWNW (290°)11.5 mphOvercast
9:30 AM50.0 °F48.2 °F94 %30.54 in3.1 miWNW (290°)10.4 mphOvercast
10:00 AM50.0 °F48.2 °F94 %30.57 inWNW (290°)9.2 mphOvercast
10:30 AM50.0 °F48.2 °F94 %30.57 in4.3 miWNW (290°)9.2 mphOvercast
11:00 AM50.0 °F48.2 °F94 %30.57 inWNW (290°)6.9 mphOvercast
11:30 AM50.0 °F48.2 °F94 %30.60 in2.2 miWNW (290°)8.1 mphOvercast
12:00 PM50.0 °F50.0 °F100 %30.60 in1.6 miWNW (290°)11.5 mphOvercast
12:30 PM50.0 °F50.0 °F100 %30.60 in0.7 miWNW (300°)10.4 mphOvercast
1:00 PM50.0 °F49.0 °F95 %30.61 in2.0 miNW (310°)11.5 mphRainLight Drizzle
1:00 PM50.0 °F50.0 °F100 %30.60 inNW (310°)11.5 mphOvercast
1:30 PM50.0 °F50.0 °F100 %30.60 inWNW (300°)11.5 mphOvercast
2:00 PM50.0 °F48.2 °F94 %30.60 in5.0 miWNW (290°)11.5 mphOvercast
2:30 PM50.0 °F48.2 °F94 %30.60 inWNW (290°)13.8 mphOvercast
3:00 PM50.0 °F48.2 °F94 %30.60 in3.1 miWNW (300°)11.5 mphOvercast
3:30 PM50.0 °F48.2 °F94 %30.60 in5.0 miNW (310°)11.5 mphOvercast
4:00 PM50.0 °F48.2 °F94 %30.63 in3.1 miWNW (290°)11.5 mphOvercast
4:30 PM50.0 °F48.2 °F94 %30.63 in3.7 miWNW (290°)10.4 mphOvercast
5:00 PM50.0 °F48.2 °F94 %30.63 in3.7 miWNW (290°)9.2 mphOvercast
5:30 PM50.0 °F48.2 °F94 %30.63 in3.7 miWNW (290°)8.1 mphOvercast
6:00 PM50.0 °F48.2 °F94 %30.66 in5.0 miWNW (290°)11.5 mphOvercast
6:30 PM48.2 °F48.2 °F100 %30.66 in5.6 miWNW (290°)6.9 mphOvercast
7:00 PM49.0 °F47.0 °F92 %30.67 in6.0 miWest (280°)10.4 mphClear
7:00 PM48.2 °F48.2 °F100 %30.66 in6.2 miWest (280°)10.4 mphOvercast
7:30 PM48.2 °F46.4 °F93 %30.66 in3.7 miWest (270°)11.5 mphOvercast
8:00 PM48.2 °F46.4 °F93 %30.66 in6.2 miWest (280°)11.5 mphOvercast
8:30 PM48.2 °F46.4 °F93 %30.66 in6.2 miWest (280°)9.2 mphOvercast
9:00 PM48.2 °F44.6 °F87 %30.66 in6.2 miWest (280°)9.2 mphOvercast
9:30 PM48.2 °F44.6 °F87 %30.69 in6.2 miWest (280°)8.1 mphOvercast
10:00 PM48.2 °F44.6 °F87 %30.69 in6.2 miWest (280°)5.8 mphOvercast
10:30 PM48.2 °F44.6 °F87 %30.69 in6.2 miWest (280°)6.9 mphOvercast
11:00 PM48.2 °F44.6 °F87 %30.69 in6.2 miWest (280°)5.8 mphOvercast
11:30 PM48.2 °F44.6 °F87 %30.69 in6.2 miWNW (290°)5.8 mphOvercast
Hourly data recorded from LFOP, located miles away from Rouen, France







STORIES FROM OUR PARTNERS